| time (UTC) | temp C | wind direction | speed KPH | gust KPH | rain 1hr cm | rain 24hr cm | rain mn cm | humidity % | barometer mb |
| 20260831025259 | 25 | 303 | 0.0 | 0.0 | 0.00 | 0.00 | 0.00 | 12 | 1017.4 |
| 20260831024754 | 25 | 350 | 0.0 | 0.0 | 0.00 | 0.00 | 0.00 | 12 | 1017.4 |
| 20260831024248 | 25 | 258 | 0.0 | 0.0 | 0.00 | 0.00 | 0.00 | 10 | 1017.0 |
| 20260831023742 | 25 | 295 | 0.0 | 0.0 | 0.00 | 0.00 | 0.00 | 10 | 1017.0 |
| 20260831023239 | 26 | 193 | 0.0 | 0.0 | 0.00 | 0.00 | 0.00 | 10 | 1017.0 |
| 20260831022732 | 26 | 313 | 0.0 | 0.0 | 0.00 | 0.00 | 0.00 | 10 | 1017.0 |
| 20260831022226 | 26 | 279 | 0.0 | 1.6 | 0.00 | 0.00 | 0.00 | 10 | 1017.0 |
| 20260831021720 | 27 | 275 | 0.0 | 1.6 | 0.00 | 0.00 | 0.00 | 10 | 1017.0 |
| 20260831021215 | 27 | 208 | 0.0 | 0.0 | 0.00 | 0.00 | 0.00 | 10 | 1017.0 |
| 20260831020710 | 27 | 277 | 0.0 | 0.0 | 0.00 | 0.00 | 0.00 | 10 | 1017.0 |
| 20260831020204 | 27 | 174 | 0.0 | 0.0 | 0.00 | 0.00 | 0.00 | 10 | 1016.7 |
| 20260831015659 | 28 | 144 | 0.0 | 0.0 | 0.00 | 0.00 | 0.00 | 10 | 1017.0 |
| 20260831015153 | 28 | 259 | 0.0 | 0.0 | 0.00 | 0.00 | 0.00 | 10 | 1017.0 |
| 20260831014647 | 28 | 249 | 0.0 | 0.0 | 0.00 | 0.00 | 0.00 | 12 | 1016.7 |
| 20260831014143 | 28 | 218 | 0.0 | 1.6 | 0.00 | 0.00 | 0.00 | 12 | 1016.7 |
| 20260831014138 | 28 | 249 | 0.0 | 1.6 | 0.00 | 0.00 | 0.00 | 12 | 1016.7 |
| 20260831013133 | 28 | 214 | 0.0 | 0.0 | 0.00 | 0.00 | 0.00 | 12 | 1016.7 |
| 20260831013128 | 28 | 236 | 0.0 | 0.0 | 0.00 | 0.00 | 0.00 | 12 | 1016.7 |
| 20260831012120 | 28 | 201 | 0.0 | 3.2 | 0.00 | 0.00 | 0.00 | 12 | 1016.7 |
| 20260831011614 | 28 | 253 | 0.0 | 3.2 | 0.00 | 0.00 | 0.00 | 12 | 1016.7 |
| 20260831011109 | 28 | 304 | 0.0 | 1.6 | 0.00 | 0.00 | 0.00 | 12 | 1016.7 |
| 20260831010603 | 28 | 288 | 0.0 | 1.6 | 0.00 | 0.00 | 0.00 | 12 | 1016.7 |
| 20260831010058 | 28 | 70 | 0.0 | 1.6 | 0.00 | 0.00 | 0.00 | 12 | 1016.7 |
| 20260831010053 | 28 | 278 | 0.0 | 0.0 | 0.00 | 0.00 | 0.00 | 12 | 1017.0 |
| 20260831005046 | 28 | 104 | 0.0 | 0.0 | 0.00 | 0.00 | 0.00 | 12 | 1016.7 |
| 20260831004543 | 28 | 287 | 0.0 | 4.8 | 0.00 | 0.00 | 0.00 | 12 | 1017.0 |
| 20260831004538 | 28 | 306 | 0.0 | 4.8 | 0.00 | 0.00 | 0.00 | 12 | 1017.0 |
| 20260831003530 | 28 | 326 | 0.0 | 1.6 | 0.00 | 0.00 | 0.00 | 12 | 1017.0 |
| 20260831003024 | 28 | 123 | 0.0 | 1.6 | 0.00 | 0.00 | 0.00 | 12 | 1017.0 |
| 20260831002519 | 28 | 41 | 0.0 | 1.6 | 0.00 | 0.00 | 0.00 | 12 | 1017.0 |
| 20260831002014 | 28 | 160 | 0.0 | 0.0 | 0.00 | 0.00 | 0.00 | 12 | 1017.0 |
| 20260831001508 | 28 | 28 | 0.0 | 1.6 | 0.00 | 0.00 | 0.00 | 11 | 1017.0 |
| 20260831001002 | 28 | 257 | 0.0 | 3.2 | 0.00 | 0.00 | 0.00 | 11 | 1017.4 |
| 20260831000457 | 28 | 59 | 0.0 | 1.6 | 0.00 | 0.00 | 0.00 | 12 | 1017.4 |
| 20260830235951 | 28 | 300 | 0.0 | 3.2 | 0.00 | 0.00 | 0.00 | 12 | 1017.4 |
| 20260830235445 | 28 | 228 | 0.0 | 3.2 | 0.00 | 0.00 | 0.00 | 12 | 1017.4 |
| 20260830234940 | 28 | 336 | 0.0 | 4.8 | 0.00 | 0.00 | 0.00 | 11 | 1017.4 |
| 20260830234435 | 28 | 323 | 0.0 | 4.8 | 0.00 | 0.00 | 0.00 | 12 | 1017.4 |
| 20260830233931 | 28 | 330 | 0.0 | 3.2 | 0.00 | 0.00 | 0.00 | 12 | 1017.4 |
| 20260830233925 | 28 | 54 | 0.0 | 3.2 | 0.00 | 0.00 | 0.00 | 12 | 1017.4 |
| 20260830232918 | 29 | 160 | 0.0 | 3.2 | 0.00 | 0.00 | 0.00 | 11 | 1017.7 |
| 20260830232412 | 29 | 279 | 0.0 | 0.0 | 0.00 | 0.00 | 0.00 | 11 | 1017.4 |
| 20260830231907 | 29 | 218 | 0.0 | 0.0 | 0.00 | 0.00 | 0.00 | 11 | 1017.7 |
| 20260830231402 | 29 | 78 | 0.0 | 1.6 | 0.00 | 0.00 | 0.00 | 11 | 1017.4 |
| 20260830230856 | 30 | 324 | 0.0 | 1.6 | 0.00 | 0.00 | 0.00 | 11 | 1017.4 |
| 20260830230350 | 30 | 261 | 0.0 | 1.6 | 0.00 | 0.00 | 0.00 | 12 | 1017.7 |
| 20260830225845 | 30 | 201 | 0.0 | 3.2 | 0.00 | 0.00 | 0.00 | 11 | 1017.7 |
| 20260830225836 | 30 | 335 | 0.0 | 4.8 | 0.00 | 0.00 | 0.00 | 11 | 1017.7 |
| 20260830225440 | 30 | 342 | 0.0 | 4.8 | 0.00 | 0.00 | 0.00 | 11 | 1017.7 |
| 20260830224331 | 30 | 7 | 0.0 | 1.6 | 0.00 | 0.00 | 0.00 | 10 | 1017.7 |
| 20260830224324 | 30 | 100 | 0.0 | 1.6 | 0.00 | 0.00 | 0.00 | 10 | 1018.0 |
| 20260830223318 | 30 | 197 | 0.0 | 1.6 | 0.00 | 0.00 | 0.00 | 10 | 1018.0 |
| 20260830223313 | 30 | 325 | 0.0 | 1.6 | 0.00 | 0.00 | 0.00 | 10 | 1018.0 |
| 20260830222307 | 30 | 77 | 0.0 | 1.6 | 0.00 | 0.00 | 0.00 | 10 | 1018.0 |
| 20260830221801 | 30 | 87 | 0.0 | 3.2 | 0.00 | 0.00 | 0.00 | 10 | 1018.0 |
| 20260830221256 | 30 | 287 | 0.0 | 3.2 | 0.00 | 0.00 | 0.00 | 10 | 1018.0 |
| 20260830220749 | 30 | 104 | 0.0 | 4.8 | 0.00 | 0.00 | 0.00 | 10 | 1018.4 |
| 20260830220244 | 30 | 21 | 0.0 | 4.8 | 0.00 | 0.00 | 0.00 | 10 | 1018.4 |
| 20260830215739 | 29 | 325 | 0.0 | 3.2 | 0.00 | 0.00 | 0.00 | 10 | 1018.4 |
| 20260830215235 | 30 | 308 | 0.0 | 3.2 | 0.00 | 0.00 | 0.00 | 10 | 1018.4 |
| 20260830214729 | 29 | 141 | 0.0 | 3.2 | 0.00 | 0.00 | 0.00 | 11 | 1018.7 |
| 20260830214222 | 29 | 287 | 0.0 | 3.2 | 0.00 | 0.00 | 0.00 | 11 | 1018.7 |
| 20260830213718 | 29 | 122 | 0.0 | 1.6 | 0.00 | 0.00 | 0.00 | 11 | 1018.7 |
| 20260830213712 | 29 | 16 | 0.0 | 4.8 | 0.00 | 0.00 | 0.00 | 10 | 1018.7 |
| 20260830212706 | 29 | 48 | 0.0 | 4.8 | 0.00 | 0.00 | 0.00 | 10 | 1019.1 |
| 20260830212202 | 29 | 284 | 0.0 | 1.6 | 0.00 | 0.00 | 0.00 | 10 | 1018.7 |
| 20260830212157 | 29 | 139 | 0.0 | 3.2 | 0.00 | 0.00 | 0.00 | 11 | 1018.7 |
| 20260830211149 | 29 | 39 | 0.0 | 1.6 | 0.00 | 0.00 | 0.00 | 11 | 1019.1 |
| 20260830210643 | 29 | 142 | 0.0 | 3.2 | 0.00 | 0.00 | 0.00 | 11 | 1019.1 |
| 20260830210138 | 29 | 186 | 0.0 | 3.2 | 0.00 | 0.00 | 0.00 | 11 | 1018.7 |
| 20260830205633 | 29 | 121 | 0.0 | 1.6 | 0.00 | 0.00 | 0.00 | 12 | 1019.4 |
| 20260830205128 | 29 | 356 | 0.0 | 0.0 | 0.00 | 0.00 | 0.00 | 11 | 1019.1 |
| 20260830204621 | 29 | 37 | 0.0 | 0.0 | 0.00 | 0.00 | 0.00 | 11 | 1019.1 |
| 20260830204116 | 29 | 59 | 0.0 | 1.6 | 0.00 | 0.00 | 0.00 | 10 | 1019.1 |
| 20260830203611 | 29 | 10 | 0.0 | 1.6 | 0.00 | 0.00 | 0.00 | 12 | 1019.1 |
| 20260830203105 | 29 | 51 | 0.0 | 1.6 | 0.00 | 0.00 | 0.00 | 12 | 1019.1 |
| 20260830202600 | 29 | 8 | 0.0 | 1.6 | 0.00 | 0.00 | 0.00 | 11 | 1019.4 |
| 20260830202555 | 29 | 312 | 0.0 | 3.2 | 0.00 | 0.00 | 0.00 | 11 | 1019.4 |
| 20260830201549 | 28 | 325 | 0.0 | 3.2 | 0.00 | 0.00 | 0.00 | 11 | 1019.4 |
| 20260830201043 | 28 | 56 | 0.0 | 0.0 | 0.00 | 0.00 | 0.00 | 11 | 1019.4 |
| 20260830200537 | 28 | 223 | 0.0 | 1.6 | 0.00 | 0.00 | 0.00 | 10 | 1019.4 |
| 20260830200032 | 28 | 132 | 0.0 | 1.6 | 0.00 | 0.00 | 0.00 | 12 | 1019.7 |
| 20260830195526 | 28 | 210 | 0.0 | 0.0 | 0.00 | 0.00 | 0.00 | 12 | 1019.7 |
| 20260830195022 | 28 | 357 | 0.0 | 0.0 | 0.00 | 0.00 | 0.00 | 12 | 1019.4 |
| 20260830194517 | 28 | 237 | 0.0 | 1.6 | 0.00 | 0.00 | 0.00 | 12 | 1019.7 |
| 20260830194512 | 27 | 226 | 0.0 | 1.6 | 0.00 | 0.00 | 0.00 | 11 | 1020.1 |
| 20260830193504 | 27 | 150 | 0.0 | 1.6 | 0.00 | 0.00 | 0.00 | 12 | 1019.7 |
| 20260830192959 | 27 | 1 | 0.0 | 1.6 | 0.00 | 0.00 | 0.00 | 12 | 1019.7 |
| 20260830192951 | 27 | 151 | 0.0 | 1.6 | 0.00 | 0.00 | 0.00 | 12 | 1020.1 |
| 20260830192555 | 27 | 65 | 0.0 | 0.0 | 0.00 | 0.00 | 0.00 | 10 | 1019.7 |
| 20260830191443 | 27 | 15 | 0.0 | 3.2 | 0.00 | 0.00 | 0.00 | 12 | 1020.1 |
| 20260830190937 | 27 | 346 | 0.0 | 3.2 | 0.00 | 0.00 | 0.00 | 12 | 1019.7 |
| 20260830190431 | 27 | 309 | 0.0 | 0.0 | 0.00 | 0.00 | 0.00 | 12 | 1020.1 |
| 20260830185927 | 27 | 120 | 0.0 | 0.0 | 0.00 | 0.00 | 0.00 | 12 | 1020.1 |
| 20260830185921 | 27 | 201 | 0.0 | 0.0 | 0.00 | 0.00 | 0.00 | 10 | 1020.1 |
| 20260830184914 | 26 | 133 | 0.0 | 0.0 | 0.00 | 0.00 | 0.00 | 10 | 1020.1 |
| 20260830184409 | 26 | 185 | 0.0 | 0.0 | 0.00 | 0.00 | 0.00 | 10 | 1020.4 |
| 20260830183903 | 26 | 311 | 0.0 | 0.0 | 0.00 | 0.00 | 0.00 | 10 | 1020.4 |
| 20260830183358 | 26 | 266 | 0.0 | 0.0 | 0.00 | 0.00 | 0.00 | 10 | 1020.7 |
| 20260830182853 | 25 | 183 | 0.0 | 0.0 | 0.00 | 0.00 | 0.00 | 10 | 1020.4 |
| 20260830182348 | 25 | 234 | 0.0 | 0.0 | 0.00 | 0.00 | 0.00 | 11 | 1020.4 |
| 20260830181841 | 25 | 193 | 0.0 | 0.0 | 0.00 | 0.00 | 0.00 | 11 | 1020.1 |
| 20260830181336 | 25 | 286 | 0.0 | 0.0 | 0.00 | 0.00 | 0.00 | 12 | 1020.4 |
| 20260830180830 | 25 | 168 | 0.0 | 0.0 | 0.00 | 0.00 | 0.00 | 12 | 1020.4 |
| 20260830180325 | 25 | 224 | 0.0 | 0.0 | 0.00 | 0.00 | 0.00 | 12 | 1020.4 |
| 20260830175819 | 25 | 84 | 0.0 | 0.0 | 0.00 | 0.00 | 0.00 | 12 | 1020.4 |
| 20260830175313 | 25 | 353 | 0.0 | 0.0 | 0.00 | 0.00 | 0.00 | 13 | 1020.4 |
| 20260830175306 | 25 | 150 | 0.0 | 1.6 | 0.00 | 0.00 | 0.00 | 17 | 1020.1 |
| 20260830174909 | 25 | 168 | 0.0 | 0.0 | 0.00 | 0.00 | 0.00 | 16 | 1020.4 |
| 20260830173757 | 25 | 131 | 0.0 | 1.6 | 0.00 | 0.00 | 0.00 | 16 | 1020.7 |
| 20260830173251 | 24 | 210 | 0.0 | 0.0 | 0.00 | 0.00 | 0.00 | 15 | 1020.4 |
| 20260830172745 | 24 | 231 | 0.0 | 0.0 | 0.00 | 0.00 | 0.00 | 14 | 1020.4 |
| 20260830172240 | 24 | 137 | 0.0 | 0.0 | 0.00 | 0.00 | 0.00 | 15 | 1020.4 |
| 20260830171735 | 24 | 144 | 0.0 | 0.0 | 0.00 | 0.00 | 0.00 | 15 | 1020.4 |
| 20260830171231 | 24 | 108 | 0.0 | 0.0 | 0.00 | 0.00 | 0.00 | 13 | 1020.4 |
| 20260830170723 | 24 | 199 | 0.0 | 0.0 | 0.00 | 0.00 | 0.00 | 13 | 1020.4 |
| 20260830170218 | 24 | 202 | 0.0 | 0.0 | 0.00 | 0.00 | 0.00 | 14 | 1020.4 |
| 20260830165713 | 24 | 136 | 0.0 | 0.0 | 0.00 | 0.00 | 0.00 | 13 | 1020.4 |
| 20260830165208 | 24 | 328 | 0.0 | 0.0 | 0.00 | 0.00 | 0.00 | 12 | 1020.4 |
| 20260830165203 | 24 | 190 | 0.0 | 0.0 | 0.00 | 0.00 | 0.00 | 13 | 1020.4 |
| 20260830164156 | 23 | 56 | 0.0 | 0.0 | 0.00 | 0.00 | 0.00 | 13 | 1020.4 |
| 20260830163650 | 23 | 205 | 0.0 | 0.0 | 0.00 | 0.00 | 0.00 | 13 | 1020.4 |
| 20260830163146 | 23 | 96 | 0.0 | 0.0 | 0.00 | 0.00 | 0.00 | 14 | 1020.4 |
| 20260830163141 | 22 | 175 | 0.0 | 0.0 | 0.00 | 0.00 | 0.00 | 12 | 1020.4 |
| 20260830162134 | 22 | 195 | 0.0 | 0.0 | 0.00 | 0.00 | 0.00 | 15 | 1020.4 |
| 20260830161628 | 22 | 226 | 0.0 | 0.0 | 0.00 | 0.00 | 0.00 | 17 | 1020.4 |
| 20260830161123 | 22 | 182 | 0.0 | 0.0 | 0.00 | 0.00 | 0.00 | 19 | 1020.7 |
| 20260830160618 | 21 | 220 | 0.0 | 0.0 | 0.00 | 0.00 | 0.00 | 20 | 1020.4 |
| 20260830160112 | 21 | 195 | 0.0 | 0.0 | 0.00 | 0.00 | 0.00 | 19 | 1020.7 |
| 20260830155607 | 21 | 119 | 0.0 | 0.0 | 0.00 | 0.00 | 0.00 | 19 | 1020.4 |
| 20260830155100 | 21 | 152 | 0.0 | 0.0 | 0.00 | 0.00 | 0.00 | 20 | 1020.4 |
| 20260830154555 | 21 | 80 | 0.0 | 0.0 | 0.00 | 0.00 | 0.00 | 23 | 1020.4 |
| 20260830154050 | 20 | 267 | 0.0 | 0.0 | 0.00 | 0.00 | 0.00 | 19 | 1020.4 |
| 20260830153544 | 20 | 287 | 0.0 | 0.0 | 0.00 | 0.00 | 0.00 | 21 | 1020.4 |
| 20260830153040 | 20 | 227 | 0.0 | 0.0 | 0.00 | 0.00 | 0.00 | 21 | 1020.4 |
| 20260830152533 | 20 | 230 | 0.0 | 0.0 | 0.00 | 0.00 | 0.00 | 24 | 1020.4 |
| 20260830152028 | 19 | 195 | 0.0 | 0.0 | 0.00 | 0.00 | 0.00 | 27 | 1020.4 |
| 20260830151522 | 19 | 298 | 0.0 | 0.0 | 0.00 | 0.00 | 0.00 | 29 | 1020.4 |
| 20260830151016 | 19 | 150 | 0.0 | 0.0 | 0.00 | 0.00 | 0.00 | 26 | 1020.4 |
| 20260830150511 | 18 | 279 | 0.0 | 0.0 | 0.00 | 0.00 | 0.00 | 22 | 1020.4 |
| 20260830150006 | 18 | 238 | 0.0 | 0.0 | 0.00 | 0.00 | 0.00 | 22 | 1020.1 |
| 20260830145500 | 17 | 229 | 0.0 | 0.0 | 0.00 | 0.00 | 0.00 | 22 | 1020.4 |
| 20260830144954 | 17 | 220 | 0.0 | 0.0 | 0.00 | 0.00 | 0.00 | 23 | 1020.4 |
| 20260830144450 | 17 | 221 | 0.0 | 0.0 | 0.00 | 0.00 | 0.00 | 27 | 1020.1 |
| 20260830143944 | 16 | 225 | 0.0 | 0.0 | 0.00 | 0.00 | 0.00 | 28 | 1020.1 |
| 20260830143438 | 16 | 203 | 0.0 | 0.0 | 0.00 | 0.00 | 0.00 | 29 | 1019.7 |
| 20260830142933 | 16 | 223 | 0.0 | 0.0 | 0.00 | 0.00 | 0.00 | 29 | 1019.7 |
| 20260830142427 | 16 | 229 | 0.0 | 0.0 | 0.00 | 0.00 | 0.00 | 30 | 1020.1 |
| 20260830141921 | 16 | 295 | 0.0 | 0.0 | 0.00 | 0.00 | 0.00 | 30 | 1019.7 |
| 20260830141416 | 16 | 271 | 0.0 | 0.0 | 0.00 | 0.00 | 0.00 | 31 | 1019.7 |
| 20260830140911 | 16 | 221 | 0.0 | 0.0 | 0.00 | 0.00 | 0.00 | 31 | 1019.7 |
| 20260830140406 | 16 | 237 | 0.0 | 0.0 | 0.00 | 0.00 | 0.00 | 31 | 1019.7 |
| 20260830135951 | 16 | 211 | 0.0 | 0.0 | 0.00 | 0.00 | 0.00 | 31 | 1019.4 |
| 20260830135859 | 16 | 234 | 0.0 | 0.0 | 0.00 | 0.00 | 0.00 | 31 | 1019.7 |
| 20260830135353 | 16 | 203 | 0.0 | 0.0 | 0.00 | 0.00 | 0.00 | 31 | 1019.4 |
| 20260830135346 | 16 | 224 | 0.0 | 0.0 | 0.00 | 0.00 | 0.00 | 31 | 1019.4 |
| 20260830133837 | 16 | 238 | 0.0 | 0.0 | 0.00 | 0.00 | 0.00 | 31 | 1019.4 |
| 20260830133333 | 16 | 269 | 0.0 | 0.0 | 0.00 | 0.00 | 0.00 | 30 | 1019.4 |
| 20260830133328 | 16 | 203 | 0.0 | 0.0 | 0.00 | 0.00 | 0.00 | 30 | 1019.4 |
| 20260830132320 | 16 | 301 | 0.0 | 0.0 | 0.00 | 0.00 | 0.00 | 32 | 1019.1 |
| 20260830131815 | 16 | 245 | 0.0 | 0.0 | 0.00 | 0.00 | 0.00 | 32 | 1019.1 |
| 20260830131311 | 16 | 254 | 0.0 | 0.0 | 0.00 | 0.00 | 0.00 | 30 | 1019.1 |
| 20260830131306 | 16 | 310 | 0.0 | 0.0 | 0.00 | 0.00 | 0.00 | 30 | 1019.1 |
| 20260830130258 | 16 | 225 | 0.0 | 0.0 | 0.00 | 0.00 | 0.00 | 30 | 1019.1 |
| 20260830125754 | 16 | 280 | 0.0 | 0.0 | 0.00 | 0.00 | 0.00 | 30 | 1019.1 |
| 20260830125749 | 16 | 225 | 0.0 | 0.0 | 0.00 | 0.00 | 0.00 | 30 | 1019.1 |
| 20260830124742 | 16 | 221 | 0.0 | 0.0 | 0.00 | 0.00 | 0.00 | 30 | 1019.1 |
| 20260830124237 | 16 | 200 | 0.0 | 0.0 | 0.00 | 0.00 | 0.00 | 30 | 1018.7 |
| 20260830123732 | 16 | 235 | 0.0 | 0.0 | 0.00 | 0.00 | 0.00 | 30 | 1019.1 |
| 20260830123227 | 16 | 230 | 0.0 | 0.0 | 0.00 | 0.00 | 0.00 | 29 | 1019.1 |
| 20260830122721 | 17 | 278 | 0.0 | 0.0 | 0.00 | 0.00 | 0.00 | 29 | 1019.1 |
| 20260830122716 | 17 | 274 | 0.0 | 0.0 | 0.00 | 0.00 | 0.00 | 29 | 1019.1 |
| 20260830121709 | 17 | 254 | 0.0 | 0.0 | 0.00 | 0.00 | 0.00 | 29 | 1019.1 |
| 20260830121205 | 17 | 269 | 0.0 | 0.0 | 0.00 | 0.00 | 0.00 | 28 | 1019.1 |
| 20260830121159 | 17 | 240 | 0.0 | 0.0 | 0.00 | 0.00 | 0.00 | 28 | 1019.1 |
| 20260830120153 | 17 | 213 | 0.0 | 0.0 | 0.00 | 0.00 | 0.00 | 28 | 1018.7 |
| 20260830115647 | 17 | 242 | 0.0 | 0.0 | 0.00 | 0.00 | 0.00 | 28 | 1019.1 |
| 20260830115237 | 17 | 195 | 0.0 | 0.0 | 0.00 | 0.00 | 0.00 | 28 | 1018.7 |
| 20260830115141 | 17 | 240 | 0.0 | 0.0 | 0.00 | 0.00 | 0.00 | 28 | 1019.1 |
| 20260830115132 | 17 | 279 | 0.0 | 0.0 | 0.00 | 0.00 | 0.00 | 28 | 1019.1 |
| 20260830113625 | 17 | 236 | 0.0 | 0.0 | 0.00 | 0.00 | 0.00 | 28 | 1018.7 |
| 20260830113120 | 17 | 294 | 0.0 | 0.0 | 0.00 | 0.00 | 0.00 | 28 | 1018.7 |
| 20260830112615 | 17 | 209 | 0.0 | 1.6 | 0.00 | 0.00 | 0.00 | 28 | 1019.1 |
| 20260830112610 | 17 | 205 | 0.0 | 1.6 | 0.00 | 0.00 | 0.00 | 28 | 1019.1 |
| 20260830111603 | 17 | 254 | 0.0 | 0.0 | 0.00 | 0.00 | 0.00 | 28 | 1018.7 |
| 20260830111058 | 17 | 226 | 0.0 | 1.6 | 0.00 | 0.00 | 0.00 | 27 | 1019.1 |
| 20260830110551 | 17 | 185 | 0.0 | 1.6 | 0.00 | 0.00 | 0.00 | 26 | 1018.7 |
| 20260830110046 | 17 | 231 | 0.0 | 0.0 | 0.00 | 0.00 | 0.00 | 27 | 1018.7 |
| 20260830105541 | 17 | 196 | 0.0 | 0.0 | 0.00 | 0.00 | 0.00 | 27 | 1018.7 |
| 20260830105036 | 17 | 269 | 0.0 | 0.0 | 0.00 | 0.00 | 0.00 | 27 | 1019.1 |
| 20260830105030 | 17 | 166 | 0.0 | 0.0 | 0.00 | 0.00 | 0.00 | 26 | 1019.1 |
| 20260830104024 | 17 | 257 | 0.0 | 0.0 | 0.00 | 0.00 | 0.00 | 25 | 1018.7 |
| 20260830103518 | 17 | 255 | 0.0 | 0.0 | 0.00 | 0.00 | 0.00 | 26 | 1018.7 |
| 20260830103012 | 17 | 258 | 0.0 | 1.6 | 0.00 | 0.00 | 0.00 | 25 | 1018.7 |
| 20260830102509 | 17 | 278 | 0.0 | 1.6 | 0.00 | 0.00 | 0.00 | 25 | 1018.7 |
| 20260830102504 | 17 | 240 | 0.0 | 0.0 | 0.00 | 0.00 | 0.00 | 25 | 1019.1 |
| 20260830101456 | 17 | 196 | 0.0 | 0.0 | 0.00 | 0.00 | 0.00 | 26 | 1019.1 |
| 20260830100951 | 17 | 283 | 0.0 | 0.0 | 0.00 | 0.00 | 0.00 | 28 | 1019.1 |
| 20260830100446 | 17 | 243 | 0.0 | 0.0 | 0.00 | 0.00 | 0.00 | 28 | 1019.1 |
| 20260830095940 | 17 | 245 | 0.0 | 0.0 | 0.00 | 0.00 | 0.00 | 28 | 1019.1 |
| 20260830095434 | 17 | 275 | 0.0 | 0.0 | 0.00 | 0.00 | 0.00 | 26 | 1018.7 |
| 20260830094929 | 17 | 190 | 0.0 | 0.0 | 0.00 | 0.00 | 0.00 | 26 | 1019.1 |
| 20260830094424 | 17 | 233 | 0.0 | 0.0 | 0.00 | 0.00 | 0.00 | 25 | 1018.7 |
| 20260830093918 | 17 | 255 | 0.0 | 0.0 | 0.00 | 0.00 | 0.00 | 25 | 1018.7 |
| 20260830093412 | 17 | 219 | 0.0 | 0.0 | 0.00 | 0.00 | 0.00 | 25 | 1019.1 |
| 20260830092906 | 17 | 247 | 0.0 | 0.0 | 0.00 | 0.00 | 0.00 | 26 | 1018.7 |
| 20260830092402 | 17 | 16 | 0.0 | 0.0 | 0.00 | 0.00 | 0.00 | 28 | 1019.1 |
| 20260830092356 | 17 | 216 | 0.0 | 0.0 | 0.00 | 0.00 | 0.00 | 28 | 1019.1 |
| 20260830091350 | 17 | 218 | 0.0 | 0.0 | 0.00 | 0.00 | 0.00 | 28 | 1019.1 |
| 20260830090845 | 17 | 210 | 0.0 | 0.0 | 0.00 | 0.00 | 0.00 | 28 | 1019.1 |
| 20260830090840 | 17 | 223 | 0.0 | 0.0 | 0.00 | 0.00 | 0.00 | 27 | 1019.1 |
| 20260830085834 | 17 | 281 | 0.0 | 0.0 | 0.00 | 0.00 | 0.00 | 26 | 1019.1 |
| 20260830085328 | 17 | 241 | 0.0 | 0.0 | 0.00 | 0.00 | 0.00 | 26 | 1019.1 |
| 20260830084823 | 17 | 221 | 0.0 | 0.0 | 0.00 | 0.00 | 0.00 | 26 | 1019.1 |
| 20260830084318 | 17 | 201 | 0.0 | 0.0 | 0.00 | 0.00 | 0.00 | 25 | 1019.1 |
| 20260830083812 | 17 | 239 | 0.0 | 0.0 | 0.00 | 0.00 | 0.00 | 27 | 1019.1 |
| 20260830083306 | 17 | 241 | 0.0 | 0.0 | 0.00 | 0.00 | 0.00 | 28 | 1019.1 |
| 20260830082801 | 18 | 228 | 0.0 | 0.0 | 0.00 | 0.00 | 0.00 | 28 | 1019.1 |
| 20260830082255 | 18 | 195 | 0.0 | 0.0 | 0.00 | 0.00 | 0.00 | 29 | 1019.1 |
| 20260830081750 | 18 | 217 | 0.0 | 0.0 | 0.00 | 0.00 | 0.00 | 28 | 1019.1 |
| 20260830081244 | 18 | 217 | 0.0 | 0.0 | 0.00 | 0.00 | 0.00 | 30 | 1018.7 |
| 20260830080739 | 18 | 136 | 0.0 | 0.0 | 0.00 | 0.00 | 0.00 | 30 | 1018.7 |
| 20260830080233 | 19 | 204 | 0.0 | 0.0 | 0.00 | 0.00 | 0.00 | 28 | 1018.7 |
| 20260830075732 | 19 | 188 | 0.0 | 0.0 | 0.00 | 0.00 | 0.00 | 27 | 1018.7 |
| 20260830075225 | 20 | 187 | 0.0 | 0.0 | 0.00 | 0.00 | 0.00 | 27 | 1019.1 |
| 20260830075218 | 20 | 243 | 0.0 | 0.0 | 0.00 | 0.00 | 0.00 | 26 | 1019.1 |
| 20260830074823 | 20 | 229 | 0.0 | 0.0 | 0.00 | 0.00 | 0.00 | 27 | 1019.1 |
| 20260830073709 | 20 | 211 | 0.0 | 0.0 | 0.00 | 0.00 | 0.00 | 26 | 1019.1 |
| 20260830073205 | 20 | 250 | 0.0 | 0.0 | 0.00 | 0.00 | 0.00 | 26 | 1018.7 |
| 20260830072700 | 20 | 185 | 0.0 | 0.0 | 0.00 | 0.00 | 0.00 | 26 | 1018.7 |
| 20260830072153 | 20 | 246 | 0.0 | 0.0 | 0.00 | 0.00 | 0.00 | 26 | 1019.1 |
| 20260830071648 | 20 | 204 | 0.0 | 0.0 | 0.00 | 0.00 | 0.00 | 26 | 1018.7 |
| 20260830071144 | 20 | 217 | 0.0 | 0.0 | 0.00 | 0.00 | 0.00 | 25 | 1019.1 |
| 20260830070637 | 20 | 262 | 0.0 | 0.0 | 0.00 | 0.00 | 0.00 | 25 | 1019.1 |
| 20260830070632 | 20 | 255 | 0.0 | 0.0 | 0.00 | 0.00 | 0.00 | 25 | 1018.7 |
| 20260830065628 | 20 | 222 | 0.0 | 0.0 | 0.00 | 0.00 | 0.00 | 25 | 1018.7 |
| 20260830065121 | 20 | 295 | 0.0 | 0.0 | 0.00 | 0.00 | 0.00 | 25 | 1018.7 |
| 20260830064616 | 20 | 181 | 0.0 | 0.0 | 0.00 | 0.00 | 0.00 | 25 | 1018.7 |
| 20260830064112 | 20 | 311 | 0.0 | 0.0 | 0.00 | 0.00 | 0.00 | 25 | 1018.7 |
| 20260830063606 | 20 | 265 | 0.0 | 0.0 | 0.00 | 0.00 | 0.00 | 25 | 1018.7 |
| 20260830063100 | 20 | 161 | 0.0 | 0.0 | 0.00 | 0.00 | 0.00 | 25 | 1018.7 |
| 20260830062556 | 20 | 250 | 0.0 | 0.0 | 0.00 | 0.00 | 0.00 | 25 | 1018.7 |
| 20260830062049 | 20 | 220 | 0.0 | 1.6 | 0.00 | 0.00 | 0.00 | 25 | 1019.1 |
| 20260830061545 | 20 | 158 | 0.0 | 1.6 | 0.00 | 0.00 | 0.00 | 24 | 1018.7 |
| 20260830061042 | 20 | 255 | 0.0 | 0.0 | 0.00 | 0.00 | 0.00 | 24 | 1018.7 |
| 20260830061036 | 20 | 282 | 0.0 | 0.0 | 0.00 | 0.00 | 0.00 | 24 | 1019.1 |
| 20260830060028 | 20 | 230 | 0.0 | 0.0 | 0.00 | 0.00 | 0.00 | 24 | 1019.1 |
| 20260830055524 | 20 | 260 | 0.0 | 0.0 | 0.00 | 0.00 | 0.00 | 24 | 1019.1 |
| 20260830055018 | 20 | 197 | 0.0 | 0.0 | 0.00 | 0.00 | 0.00 | 24 | 1018.7 |
| 20260830054516 | 20 | 226 | 0.0 | 0.0 | 0.00 | 0.00 | 0.00 | 24 | 1019.1 |
| 20260830054510 | 20 | 179 | 0.0 | 0.0 | 0.00 | 0.00 | 0.00 | 24 | 1019.1 |
| 20260830053958 | 20 | 194 | 0.0 | 0.0 | 0.00 | 0.00 | 0.00 | 24 | 1019.1 |
| 20260830053602 | 20 | 243 | 0.0 | 0.0 | 0.00 | 0.00 | 0.00 | 24 | 1018.7 |
| 20260830052452 | 20 | 228 | 0.0 | 0.0 | 0.00 | 0.00 | 0.00 | 24 | 1019.1 |
| 20260830051947 | 20 | 231 | 0.0 | 0.0 | 0.00 | 0.00 | 0.00 | 23 | 1019.1 |
| 20260830051441 | 20 | 174 | 0.0 | 0.0 | 0.00 | 0.00 | 0.00 | 23 | 1019.1 |
| 20260830050938 | 20 | 227 | 0.0 | 0.0 | 0.00 | 0.00 | 0.00 | 23 | 1019.1 |
| 20260830050432 | 21 | 214 | 0.0 | 1.6 | 0.00 | 0.00 | 0.00 | 23 | 1019.1 |
| 20260830050426 | 21 | 254 | 0.0 | 1.6 | 0.00 | 0.00 | 0.00 | 23 | 1019.1 |
| 20260830045422 | 21 | 156 | 0.0 | 0.0 | 0.00 | 0.00 | 0.00 | 23 | 1019.1 |
| 20260830044916 | 21 | 245 | 0.0 | 0.0 | 0.00 | 0.00 | 0.00 | 22 | 1019.4 |
| 20260830044911 | 21 | 214 | 0.0 | 0.0 | 0.00 | 0.00 | 0.00 | 22 | 1019.1 |
| 20260830043905 | 21 | 185 | 0.0 | 0.0 | 0.00 | 0.00 | 0.00 | 21 | 1019.1 |
| 20260830043358 | 21 | 253 | 0.0 | 0.0 | 0.00 | 0.00 | 0.00 | 21 | 1019.1 |
| 20260830042853 | 21 | 272 | 0.0 | 1.6 | 0.00 | 0.00 | 0.00 | 21 | 1019.1 |
| 20260830042349 | 21 | 57 | 0.0 | 1.6 | 0.00 | 0.00 | 0.00 | 20 | 1018.7 |
| 20260830041842 | 21 | 226 | 0.0 | 1.6 | 0.00 | 0.00 | 0.00 | 20 | 1018.4 |
| 20260830041337 | 21 | 185 | 0.0 | 1.6 | 0.00 | 0.00 | 0.00 | 21 | 1018.7 |
| 20260830040833 | 21 | 292 | 0.0 | 4.8 | 0.00 | 0.00 | 0.00 | 21 | 1018.7 |
| 20260830040327 | 22 | 207 | 0.0 | 4.8 | 0.00 | 0.00 | 0.00 | 21 | 1018.4 |
| 20260830035821 | 22 | 228 | 0.0 | 3.2 | 0.00 | 0.00 | 0.00 | 21 | 1018.4 |
| 20260830035318 | 22 | 315 | 0.0 | 3.2 | 0.00 | 0.00 | 0.00 | 20 | 1018.7 |
| 20260830035307 | 22 | 271 | 0.0 | 0.0 | 0.00 | 0.00 | 0.00 | 19 | 1018.7 |
| 20260830034911 | 22 | 241 | 0.0 | 1.6 | 0.00 | 0.00 | 0.00 | 20 | 1018.7 |
| 20260830033801 | 23 | 183 | 0.0 | 0.0 | 0.00 | 0.00 | 0.00 | 18 | 1018.7 |
| 20260830033257 | 23 | 270 | 0.0 | 0.0 | 0.00 | 0.00 | 0.00 | 18 | 1018.4 |
| 20260830033252 | 23 | 252 | 0.0 | 0.0 | 0.00 | 0.00 | 0.00 | 18 | 1018.4 |
| 20260830032246 | 23 | 334 | 0.0 | 0.0 | 0.00 | 0.00 | 0.00 | 15 | 1018.0 |
| 20260830032237 | 23 | 213 | 0.0 | 0.0 | 0.00 | 0.00 | 0.00 | 14 | 1018.0 |
| 20260830031841 | 23 | 254 | 0.0 | 0.0 | 0.00 | 0.00 | 0.00 | 15 | 1018.0 |
| 20260830030730 | 24 | 246 | 0.0 | 0.0 | 0.00 | 0.00 | 0.00 | 13 | 1018.0 |
| 20260830030224 | 24 | 233 | 0.0 | 0.0 | 0.00 | 0.00 | 0.00 | 13 | 1017.7 |
| 20260830030219 | 24 | 201 | 0.0 | 1.6 | 0.00 | 0.00 | 0.00 | 12 | 1018.0 |